owner,sensor,date,latitude,longitude,vertical_datum,sea_water_temperature,qcFlag 
TCOON,ioos:station:TCOON:127:1,2019-02-01T00:24:00Z,28.2598,-96.7737,0.0,12.6,11111222 
TCOON,ioos:station:TCOON:127:1,2019-02-01T01:24:00Z,28.2598,-96.7737,0.0,12.6,11111222 
TCOON,ioos:station:TCOON:127:1,2019-02-01T02:24:00Z,28.2598,-96.7737,0.0,12.6,11111222 
TCOON,ioos:station:TCOON:127:1,2019-02-01T03:24:00Z,28.2598,-96.7737,0.0,12.7,11111222 
TCOON,ioos:station:TCOON:127:1,2019-02-01T04:24:00Z,28.2598,-96.7737,0.0,12.7,11111222 
TCOON,ioos:station:TCOON:127:1,2019-02-01T05:24:00Z,28.2598,-96.7737,0.0,12.7,11111222 
TCOON,ioos:station:TCOON:127:1,2019-02-01T06:24:00Z,28.2598,-96.7737,0.0,12.7,11111222 
TCOON,ioos:station:TCOON:127:1,2019-02-01T07:24:00Z,28.2598,-96.7737,0.0,12.7,11111222 
TCOON,ioos:station:TCOON:127:1,2019-02-01T08:24:00Z,28.2598,-96.7737,0.0,12.7,11111222 
TCOON,ioos:station:TCOON:127:1,2019-02-01T09:24:00Z,28.2598,-96.7737,0.0,12.8,11111222 
TCOON,ioos:station:TCOON:127:1,2019-02-01T10:24:00Z,28.2598,-96.7737,0.0,12.7,11111222 
TCOON,ioos:station:TCOON:127:1,2019-02-01T11:24:00Z,28.2598,-96.7737,0.0,12.7,11111222 
TCOON,ioos:station:TCOON:127:1,2019-02-01T12:24:00Z,28.2598,-96.7737,0.0,12.8,11111222 
TCOON,ioos:station:TCOON:127:1,2019-02-01T13:24:00Z,28.2598,-96.7737,0.0,12.8,11111222 
TCOON,ioos:station:TCOON:127:1,2019-02-01T14:24:00Z,28.2598,-96.7737,0.0,12.8,11111222 
TCOON,ioos:station:TCOON:127:1,2019-02-01T15:24:00Z,28.2598,-96.7737,0.0,12.8,11111222 
TCOON,ioos:station:TCOON:127:1,2019-02-01T16:24:00Z,28.2598,-96.7737,0.0,12.9,11111222 
TCOON,ioos:station:TCOON:127:1,2019-02-01T17:24:00Z,28.2598,-96.7737,0.0,13.2,11111222 
TCOON,ioos:station:TCOON:127:1,2019-02-01T18:24:00Z,28.2598,-96.7737,0.0,13.5,11111222 
TCOON,ioos:station:TCOON:127:1,2019-02-01T19:24:00Z,28.2598,-96.7737,0.0,13.5,11111222 
TCOON,ioos:station:TCOON:127:1,2019-02-01T20:24:00Z,28.2598,-96.7737,0.0,13.9,11111222 
TCOON,ioos:station:TCOON:127:1,2019-02-01T21:24:00Z,28.2598,-96.7737,0.0,14.0,11111222 
TCOON,ioos:station:TCOON:127:1,2019-02-01T22:24:00Z,28.2598,-96.7737,0.0,14.3,11111222 
TCOON,ioos:station:TCOON:127:1,2019-02-01T23:24:00Z,28.2598,-96.7737,0.0,14.2,11111222 
TCOON,ioos:station:TCOON:127:1,2019-02-02T00:24:00Z,28.2598,-96.7737,0.0,14.1,11111222 
TCOON,ioos:station:TCOON:127:1,2019-02-02T01:24:00Z,28.2598,-96.7737,0.0,14.1,11111222 
TCOON,ioos:station:TCOON:127:1,2019-02-02T02:24:00Z,28.2598,-96.7737,0.0,13.9,11111222 
TCOON,ioos:station:TCOON:127:1,2019-02-02T03:24:00Z,28.2598,-96.7737,0.0,13.9,11111222 
TCOON,ioos:station:TCOON:127:1,2019-02-02T04:24:00Z,28.2598,-96.7737,0.0,14.0,11111222 
TCOON,ioos:station:TCOON:127:1,2019-02-02T05:24:00Z,28.2598,-96.7737,0.0,14.0,11111222 
TCOON,ioos:station:TCOON:127:1,2019-02-02T06:24:00Z,28.2598,-96.7737,0.0,14.0,11111222 
TCOON,ioos:station:TCOON:127:1,2019-02-02T07:24:00Z,28.2598,-96.7737,0.0,14.0,11111222 
TCOON,ioos:station:TCOON:127:1,2019-02-02T08:24:00Z,28.2598,-96.7737,0.0,13.9,11111222 
TCOON,ioos:station:TCOON:127:1,2019-02-02T09:24:00Z,28.2598,-96.7737,0.0,13.9,11111222 
TCOON,ioos:station:TCOON:127:1,2019-02-02T10:24:00Z,28.2598,-96.7737,0.0,13.9,11111222 
TCOON,ioos:station:TCOON:127:1,2019-02-02T11:24:00Z,28.2598,-96.7737,0.0,13.9,11111222 
TCOON,ioos:station:TCOON:127:1,2019-02-02T12:24:00Z,28.2598,-96.7737,0.0,13.9,11111222 
TCOON,ioos:station:TCOON:127:1,2019-02-02T13:24:00Z,28.2598,-96.7737,0.0,14.0,11111222 
TCOON,ioos:station:TCOON:127:1,2019-02-02T14:24:00Z,28.2598,-96.7737,0.0,14.0,11111222 
TCOON,ioos:station:TCOON:127:1,2019-02-02T15:24:00Z,28.2598,-96.7737,0.0,14.0,11111222 
TCOON,ioos:station:TCOON:127:1,2019-02-02T16:24:00Z,28.2598,-96.7737,0.0,14.2,11111222 
TCOON,ioos:station:TCOON:127:1,2019-02-02T17:24:00Z,28.2598,-96.7737,0.0,14.2,11111222 
TCOON,ioos:station:TCOON:127:1,2019-02-02T18:24:00Z,28.2598,-96.7737,0.0,14.5,11111222 
TCOON,ioos:station:TCOON:127:1,2019-02-02T19:24:00Z,28.2598,-96.7737,0.0,14.4,11111222 
TCOON,ioos:station:TCOON:127:1,2019-02-02T20:24:00Z,28.2598,-96.7737,0.0,14.4,11111222 
TCOON,ioos:station:TCOON:127:1,2019-02-02T21:24:00Z,28.2598,-96.7737,0.0,14.8,11111222 
TCOON,ioos:station:TCOON:127:1,2019-02-02T22:24:00Z,28.2598,-96.7737,0.0,14.7,11111222 
TCOON,ioos:station:TCOON:127:1,2019-02-02T23:24:00Z,28.2598,-96.7737,0.0,14.7,11111222 
TCOON,ioos:station:TCOON:127:1,2019-02-03T00:24:00Z,28.2598,-96.7737,0.0,14.2,11111222 
TCOON,ioos:station:TCOON:127:1,2019-02-03T01:24:00Z,28.2598,-96.7737,0.0,14.1,11111222 
TCOON,ioos:station:TCOON:127:1,2019-02-03T02:24:00Z,28.2598,-96.7737,0.0,14.2,11111222 
TCOON,ioos:station:TCOON:127:1,2019-02-03T03:24:00Z,28.2598,-96.7737,0.0,14.3,11111222 
TCOON,ioos:station:TCOON:127:1,2019-02-03T04:24:00Z,28.2598,-96.7737,0.0,14.0,11111222 
TCOON,ioos:station:TCOON:127:1,2019-02-03T05:24:00Z,28.2598,-96.7737,0.0,14.8,11111222 
TCOON,ioos:station:TCOON:127:1,2019-02-03T06:24:00Z,28.2598,-96.7737,0.0,14.7,11111222 
TCOON,ioos:station:TCOON:127:1,2019-02-03T07:24:00Z,28.2598,-96.7737,0.0,15.0,11111222 
TCOON,ioos:station:TCOON:127:1,2019-02-03T08:24:00Z,28.2598,-96.7737,0.0,15.2,11111222 
TCOON,ioos:station:TCOON:127:1,2019-02-03T09:24:00Z,28.2598,-96.7737,0.0,15.2,11111222 
TCOON,ioos:station:TCOON:127:1,2019-02-03T10:24:00Z,28.2598,-96.7737,0.0,15.2,11111222 
TCOON,ioos:station:TCOON:127:1,2019-02-03T11:24:00Z,28.2598,-96.7737,0.0,15.2,11111222 
TCOON,ioos:station:TCOON:127:1,2019-02-03T12:24:00Z,28.2598,-96.7737,0.0,15.3,11111222 
TCOON,ioos:station:TCOON:127:1,2019-02-03T13:24:00Z,28.2598,-96.7737,0.0,15.3,11111222 
TCOON,ioos:station:TCOON:127:1,2019-02-03T14:24:00Z,28.2598,-96.7737,0.0,15.3,11111222 
TCOON,ioos:station:TCOON:127:1,2019-02-03T15:24:00Z,28.2598,-96.7737,0.0,15.3,11111222 
TCOON,ioos:station:TCOON:127:1,2019-02-03T16:24:00Z,28.2598,-96.7737,0.0,15.4,11111222 
TCOON,ioos:station:TCOON:127:1,2019-02-03T17:24:00Z,28.2598,-96.7737,0.0,15.4,11111222 
TCOON,ioos:station:TCOON:127:1,2019-02-03T18:24:00Z,28.2598,-96.7737,0.0,15.3,11111222 
TCOON,ioos:station:TCOON:127:1,2019-02-03T19:24:00Z,28.2598,-96.7737,0.0,15.3,11111222 
TCOON,ioos:station:TCOON:127:1,2019-02-03T20:24:00Z,28.2598,-96.7737,0.0,15.2,11111222 
TCOON,ioos:station:TCOON:127:1,2019-02-03T21:24:00Z,28.2598,-96.7737,0.0,15.2,11111222 
TCOON,ioos:station:TCOON:127:1,2019-02-03T22:30:00Z,28.2598,-96.7737,0.0,15.2,11111222 
TCOON,ioos:station:TCOON:127:1,2019-02-03T23:24:00Z,28.2598,-96.7737,0.0,15.2,11111222 
TCOON,ioos:station:TCOON:127:1,2019-02-04T00:24:00Z,28.2598,-96.7737,0.0,15.1,11111222 
TCOON,ioos:station:TCOON:127:1,2019-02-04T01:24:00Z,28.2598,-96.7737,0.0,15.2,11111222 
TCOON,ioos:station:TCOON:127:1,2019-02-04T02:24:00Z,28.2598,-96.7737,0.0,15.3,11111222 
TCOON,ioos:station:TCOON:127:1,2019-02-04T03:24:00Z,28.2598,-96.7737,0.0,15.6,11111222 
TCOON,ioos:station:TCOON:127:1,2019-02-04T04:24:00Z,28.2598,-96.7737,0.0,16.0,11111222 
TCOON,ioos:station:TCOON:127:1,2019-02-04T05:24:00Z,28.2598,-96.7737,0.0,16.0,11111222 
TCOON,ioos:station:TCOON:127:1,2019-02-04T06:24:00Z,28.2598,-96.7737,0.0,16.1,11111222 
TCOON,ioos:station:TCOON:127:1,2019-02-04T07:24:00Z,28.2598,-96.7737,0.0,16.0,11111222 
TCOON,ioos:station:TCOON:127:1,2019-02-04T08:24:00Z,28.2598,-96.7737,0.0,15.5,11111222 
TCOON,ioos:station:TCOON:127:1,2019-02-04T09:24:00Z,28.2598,-96.7737,0.0,15.8,11111222 
TCOON,ioos:station:TCOON:127:1,2019-02-04T10:24:00Z,28.2598,-96.7737,0.0,15.4,11111222 
TCOON,ioos:station:TCOON:127:1,2019-02-04T11:24:00Z,28.2598,-96.7737,0.0,15.2,11111222 
TCOON,ioos:station:TCOON:127:1,2019-02-04T12:24:00Z,28.2598,-96.7737,0.0,15.4,11111222 
TCOON,ioos:station:TCOON:127:1,2019-02-04T13:24:00Z,28.2598,-96.7737,0.0,15.2,11111222 
TCOON,ioos:station:TCOON:127:1,2019-02-04T14:24:00Z,28.2598,-96.7737,0.0,15.4,11111222 
TCOON,ioos:station:TCOON:127:1,2019-02-04T15:24:00Z,28.2598,-96.7737,0.0,15.5,11111222 
TCOON,ioos:station:TCOON:127:1,2019-02-04T16:24:00Z,28.2598,-96.7737,0.0,15.5,11111222 
TCOON,ioos:station:TCOON:127:1,2019-02-04T17:24:00Z,28.2598,-96.7737,0.0,15.7,11111222 
TCOON,ioos:station:TCOON:127:1,2019-02-04T18:24:00Z,28.2598,-96.7737,0.0,15.6,11111222 
TCOON,ioos:station:TCOON:127:1,2019-02-04T19:24:00Z,28.2598,-96.7737,0.0,15.8,11111222 
TCOON,ioos:station:TCOON:127:1,2019-02-04T20:30:00Z,28.2598,-96.7737,0.0,15.9,11111222 
TCOON,ioos:station:TCOON:127:1,2019-02-04T21:24:00Z,28.2598,-96.7737,0.0,15.8,11111222 
TCOON,ioos:station:TCOON:127:1,2019-02-04T22:24:00Z,28.2598,-96.7737,0.0,15.8,11111222 
TCOON,ioos:station:TCOON:127:1,2019-02-04T23:24:00Z,28.2598,-96.7737,0.0,15.8,11111222 
TCOON,ioos:station:TCOON:127:1,2019-02-05T00:24:00Z,28.2598,-96.7737,0.0,15.7,11111222 
TCOON,ioos:station:TCOON:127:1,2019-02-05T01:24:00Z,28.2598,-96.7737,0.0,15.7,11111222 
TCOON,ioos:station:TCOON:127:1,2019-02-05T02:24:00Z,28.2598,-96.7737,0.0,16.0,11111222 
TCOON,ioos:station:TCOON:127:1,2019-02-05T03:24:00Z,28.2598,-96.7737,0.0,16.2,11111222 
TCOON,ioos:station:TCOON:127:1,2019-02-05T04:24:00Z,28.2598,-96.7737,0.0,16.4,11111222 
TCOON,ioos:station:TCOON:127:1,2019-02-05T05:24:00Z,28.2598,-96.7737,0.0,16.9,11111222 
TCOON,ioos:station:TCOON:127:1,2019-02-05T06:24:00Z,28.2598,-96.7737,0.0,17.0,11111222 
TCOON,ioos:station:TCOON:127:1,2019-02-05T07:24:00Z,28.2598,-96.7737,0.0,16.6,11111222 
TCOON,ioos:station:TCOON:127:1,2019-02-05T08:24:00Z,28.2598,-96.7737,0.0,16.0,11111222 
TCOON,ioos:station:TCOON:127:1,2019-02-05T09:24:00Z,28.2598,-96.7737,0.0,16.1,11111222 
TCOON,ioos:station:TCOON:127:1,2019-02-05T10:24:00Z,28.2598,-96.7737,0.0,16.1,11111222 
TCOON,ioos:station:TCOON:127:1,2019-02-05T11:24:00Z,28.2598,-96.7737,0.0,16.0,11111222 
TCOON,ioos:station:TCOON:127:1,2019-02-05T12:24:00Z,28.2598,-96.7737,0.0,15.8,11111222 
TCOON,ioos:station:TCOON:127:1,2019-02-05T13:24:00Z,28.2598,-96.7737,0.0,15.6,11111222 
TCOON,ioos:station:TCOON:127:1,2019-02-05T14:24:00Z,28.2598,-96.7737,0.0,15.7,11111222 
TCOON,ioos:station:TCOON:127:1,2019-02-05T15:24:00Z,28.2598,-96.7737,0.0,15.8,11111222 
TCOON,ioos:station:TCOON:127:1,2019-02-05T16:24:00Z,28.2598,-96.7737,0.0,15.9,11111222 
TCOON,ioos:station:TCOON:127:1,2019-02-05T17:30:00Z,28.2598,-96.7737,0.0,16.0,11111222 
TCOON,ioos:station:TCOON:127:1,2019-02-05T18:24:00Z,28.2598,-96.7737,0.0,16.0,11111222 
TCOON,ioos:station:TCOON:127:1,2019-02-05T19:24:00Z,28.2598,-96.7737,0.0,16.3,11111222 
TCOON,ioos:station:TCOON:127:1,2019-02-05T20:24:00Z,28.2598,-96.7737,0.0,17.1,11111222 
TCOON,ioos:station:TCOON:127:1,2019-02-05T21:24:00Z,28.2598,-96.7737,0.0,17.1,11111222 
TCOON,ioos:station:TCOON:127:1,2019-02-05T22:24:00Z,28.2598,-96.7737,0.0,17.2,11111222 
TCOON,ioos:station:TCOON:127:1,2019-02-05T23:24:00Z,28.2598,-96.7737,0.0,17.1,11111222 
TCOON,ioos:station:TCOON:127:1,2019-02-06T00:24:00Z,28.2598,-96.7737,0.0,17.2,11111222 
TCOON,ioos:station:TCOON:127:1,2019-02-06T01:24:00Z,28.2598,-96.7737,0.0,17.1,11111222 
TCOON,ioos:station:TCOON:127:1,2019-02-06T02:24:00Z,28.2598,-96.7737,0.0,16.8,11111222 
TCOON,ioos:station:TCOON:127:1,2019-02-06T03:24:00Z,28.2598,-96.7737,0.0,17.1,11111222 
TCOON,ioos:station:TCOON:127:1,2019-02-06T04:24:00Z,28.2598,-96.7737,0.0,16.9,11111222 
TCOON,ioos:station:TCOON:127:1,2019-02-06T05:24:00Z,28.2598,-96.7737,0.0,17.1,11111222 
TCOON,ioos:station:TCOON:127:1,2019-02-06T06:24:00Z,28.2598,-96.7737,0.0,17.0,11111222 
TCOON,ioos:station:TCOON:127:1,2019-02-06T07:24:00Z,28.2598,-96.7737,0.0,17.1,11111222 
TCOON,ioos:station:TCOON:127:1,2019-02-06T08:24:00Z,28.2598,-96.7737,0.0,17.6,11111222 
TCOON,ioos:station:TCOON:127:1,2019-02-06T09:24:00Z,28.2598,-96.7737,0.0,17.5,11111222 
TCOON,ioos:station:TCOON:127:1,2019-02-06T10:24:00Z,28.2598,-96.7737,0.0,17.5,11111222 
TCOON,ioos:station:TCOON:127:1,2019-02-06T11:24:00Z,28.2598,-96.7737,0.0,17.4,11111222 
TCOON,ioos:station:TCOON:127:1,2019-02-06T12:24:00Z,28.2598,-96.7737,0.0,17.4,11111222 
TCOON,ioos:station:TCOON:127:1,2019-02-06T13:24:00Z,28.2598,-96.7737,0.0,17.5,11111222 
TCOON,ioos:station:TCOON:127:1,2019-02-06T14:24:00Z,28.2598,-96.7737,0.0,17.7,11111222 
TCOON,ioos:station:TCOON:127:1,2019-02-06T15:24:00Z,28.2598,-96.7737,0.0,18.1,11111222 
TCOON,ioos:station:TCOON:127:1,2019-02-06T16:24:00Z,28.2598,-96.7737,0.0,18.1,11111222 
TCOON,ioos:station:TCOON:127:1,2019-02-06T17:24:00Z,28.2598,-96.7737,0.0,18.4,11111222 
TCOON,ioos:station:TCOON:127:1,2019-02-06T18:24:00Z,28.2598,-96.7737,0.0,18.6,11111222 
TCOON,ioos:station:TCOON:127:1,2019-02-06T19:24:00Z,28.2598,-96.7737,0.0,18.7,11111222 
TCOON,ioos:station:TCOON:127:1,2019-02-06T20:30:00Z,28.2598,-96.7737,0.0,18.7,11111222 
TCOON,ioos:station:TCOON:127:1,2019-02-06T22:24:00Z,28.2598,-96.7737,0.0,19.1,11111222 
TCOON,ioos:station:TCOON:127:1,2019-02-06T23:24:00Z,28.2598,-96.7737,0.0,18.8,11111222 
TCOON,ioos:station:TCOON:127:1,2019-02-07T00:24:00Z,28.2598,-96.7737,0.0,18.8,11111222 
TCOON,ioos:station:TCOON:127:1,2019-02-07T01:24:00Z,28.2598,-96.7737,0.0,18.7,11111222 
TCOON,ioos:station:TCOON:127:1,2019-02-07T02:24:00Z,28.2598,-96.7737,0.0,18.6,11111222 
TCOON,ioos:station:TCOON:127:1,2019-02-07T03:24:00Z,28.2598,-96.7737,0.0,18.6,11111222 
TCOON,ioos:station:TCOON:127:1,2019-02-07T04:24:00Z,28.2598,-96.7737,0.0,18.6,11111222 
TCOON,ioos:station:TCOON:127:1,2019-02-07T05:24:00Z,28.2598,-96.7737,0.0,18.8,11111222 
TCOON,ioos:station:TCOON:127:1,2019-02-07T06:24:00Z,28.2598,-96.7737,0.0,18.3,11111222 
TCOON,ioos:station:TCOON:127:1,2019-02-07T07:24:00Z,28.2598,-96.7737,0.0,18.3,11111222 
TCOON,ioos:station:TCOON:127:1,2019-02-07T08:24:00Z,28.2598,-96.7737,0.0,18.3,11111222 
TCOON,ioos:station:TCOON:127:1,2019-02-07T09:24:00Z,28.2598,-96.7737,0.0,18.3,11111222 
TCOON,ioos:station:TCOON:127:1,2019-02-07T10:24:00Z,28.2598,-96.7737,0.0,18.6,11111222 
TCOON,ioos:station:TCOON:127:1,2019-02-07T11:24:00Z,28.2598,-96.7737,0.0,18.3,11111222 
TCOON,ioos:station:TCOON:127:1,2019-02-07T12:24:00Z,28.2598,-96.7737,0.0,18.5,11111222 
TCOON,ioos:station:TCOON:127:1,2019-02-07T13:24:00Z,28.2598,-96.7737,0.0,18.5,11111222 
TCOON,ioos:station:TCOON:127:1,2019-02-07T14:30:00Z,28.2598,-96.7737,0.0,18.3,11111222 
TCOON,ioos:station:TCOON:127:1,2019-02-07T15:24:00Z,28.2598,-96.7737,0.0,18.5,11111222 
TCOON,ioos:station:TCOON:127:1,2019-02-07T16:24:00Z,28.2598,-96.7737,0.0,18.5,11111222 
TCOON,ioos:station:TCOON:127:1,2019-02-07T17:24:00Z,28.2598,-96.7737,0.0,18.6,11111222 
TCOON,ioos:station:TCOON:127:1,2019-02-07T18:24:00Z,28.2598,-96.7737,0.0,18.5,11111222 
TCOON,ioos:station:TCOON:127:1,2019-02-07T19:24:00Z,28.2598,-96.7737,0.0,18.3,11111222 
TCOON,ioos:station:TCOON:127:1,2019-02-07T20:30:00Z,28.2598,-96.7737,0.0,18.5,11111222 
TCOON,ioos:station:TCOON:127:1,2019-02-07T21:24:00Z,28.2598,-96.7737,0.0,18.6,11111222 
TCOON,ioos:station:TCOON:127:1,2019-02-07T22:24:00Z,28.2598,-96.7737,0.0,18.5,11111222 
TCOON,ioos:station:TCOON:127:1,2019-02-07T23:24:00Z,28.2598,-96.7737,0.0,18.4,11111222 
TCOON,ioos:station:TCOON:127:1,2019-02-08T00:24:00Z,28.2598,-96.7737,0.0,18.1,11111222 
TCOON,ioos:station:TCOON:127:1,2019-02-08T01:24:00Z,28.2598,-96.7737,0.0,17.9,11111222 
TCOON,ioos:station:TCOON:127:1,2019-02-08T02:24:00Z,28.2598,-96.7737,0.0,17.7,11111222 
TCOON,ioos:station:TCOON:127:1,2019-02-08T03:24:00Z,28.2598,-96.7737,0.0,17.6,11111222 
TCOON,ioos:station:TCOON:127:1,2019-02-08T04:24:00Z,28.2598,-96.7737,0.0,17.4,11111222 
TCOON,ioos:station:TCOON:127:1,2019-02-08T05:24:00Z,28.2598,-96.7737,0.0,17.2,11111222 
TCOON,ioos:station:TCOON:127:1,2019-02-08T06:24:00Z,28.2598,-96.7737,0.0,17.0,11111222 
TCOON,ioos:station:TCOON:127:1,2019-02-08T07:24:00Z,28.2598,-96.7737,0.0,16.8,11111222 
TCOON,ioos:station:TCOON:127:1,2019-02-08T08:24:00Z,28.2598,-96.7737,0.0,16.5,11111222 
TCOON,ioos:station:TCOON:127:1,2019-02-08T09:24:00Z,28.2598,-96.7737,0.0,16.2,11111222 
TCOON,ioos:station:TCOON:127:1,2019-02-08T10:24:00Z,28.2598,-96.7737,0.0,15.9,11111222 
TCOON,ioos:station:TCOON:127:1,2019-02-08T11:24:00Z,28.2598,-96.7737,0.0,15.7,11111222 
TCOON,ioos:station:TCOON:127:1,2019-02-08T12:24:00Z,28.2598,-96.7737,0.0,15.5,11111222 
TCOON,ioos:station:TCOON:127:1,2019-02-08T13:24:00Z,28.2598,-96.7737,0.0,15.2,11111222 
TCOON,ioos:station:TCOON:127:1,2019-02-08T14:24:00Z,28.2598,-96.7737,0.0,15.0,11111222 
TCOON,ioos:station:TCOON:127:1,2019-02-08T15:24:00Z,28.2598,-96.7737,0.0,14.9,11111222 
TCOON,ioos:station:TCOON:127:1,2019-02-08T16:24:00Z,28.2598,-96.7737,0.0,14.6,11111222 
TCOON,ioos:station:TCOON:127:1,2019-02-08T17:24:00Z,28.2598,-96.7737,0.0,14.5,11111222 
TCOON,ioos:station:TCOON:127:1,2019-02-08T18:24:00Z,28.2598,-96.7737,0.0,14.3,11111222 
TCOON,ioos:station:TCOON:127:1,2019-02-08T19:24:00Z,28.2598,-96.7737,0.0,14.2,11111222 
TCOON,ioos:station:TCOON:127:1,2019-02-08T20:30:00Z,28.2598,-96.7737,0.0,14.0,11111222 
TCOON,ioos:station:TCOON:127:1,2019-02-08T21:24:00Z,28.2598,-96.7737,0.0,13.8,11111222 
TCOON,ioos:station:TCOON:127:1,2019-02-08T22:24:00Z,28.2598,-96.7737,0.0,13.7,11111222 
TCOON,ioos:station:TCOON:127:1,2019-02-08T23:24:00Z,28.2598,-96.7737,0.0,13.5,11111222 
TCOON,ioos:station:TCOON:127:1,2019-02-09T00:24:00Z,28.2598,-96.7737,0.0,13.4,11111222 
TCOON,ioos:station:TCOON:127:1,2019-02-09T01:24:00Z,28.2598,-96.7737,0.0,13.2,11111222 
TCOON,ioos:station:TCOON:127:1,2019-02-09T02:24:00Z,28.2598,-96.7737,0.0,13.1,11111222 
TCOON,ioos:station:TCOON:127:1,2019-02-09T03:24:00Z,28.2598,-96.7737,0.0,12.9,11111222 
TCOON,ioos:station:TCOON:127:1,2019-02-09T04:24:00Z,28.2598,-96.7737,0.0,12.8,11111222 
TCOON,ioos:station:TCOON:127:1,2019-02-09T05:24:00Z,28.2598,-96.7737,0.0,12.6,11111222 
TCOON,ioos:station:TCOON:127:1,2019-02-09T06:24:00Z,28.2598,-96.7737,0.0,12.5,11111222 
TCOON,ioos:station:TCOON:127:1,2019-02-09T07:24:00Z,28.2598,-96.7737,0.0,12.4,11111222 
TCOON,ioos:station:TCOON:127:1,2019-02-09T08:24:00Z,28.2598,-96.7737,0.0,12.1,11111222 
TCOON,ioos:station:TCOON:127:1,2019-02-09T09:24:00Z,28.2598,-96.7737,0.0,12.0,11111222 
TCOON,ioos:station:TCOON:127:1,2019-02-09T10:24:00Z,28.2598,-96.7737,0.0,12.0,11111222 
TCOON,ioos:station:TCOON:127:1,2019-02-09T11:24:00Z,28.2598,-96.7737,0.0,11.9,11111222 
TCOON,ioos:station:TCOON:127:1,2019-02-09T12:24:00Z,28.2598,-96.7737,0.0,11.6,11111222 
TCOON,ioos:station:TCOON:127:1,2019-02-09T13:24:00Z,28.2598,-96.7737,0.0,11.5,11111222 
TCOON,ioos:station:TCOON:127:1,2019-02-09T14:24:00Z,28.2598,-96.7737,0.0,11.4,11111222 
TCOON,ioos:station:TCOON:127:1,2019-02-09T15:24:00Z,28.2598,-96.7737,0.0,11.3,11111222 
TCOON,ioos:station:TCOON:127:1,2019-02-09T16:24:00Z,28.2598,-96.7737,0.0,11.2,11111222 
TCOON,ioos:station:TCOON:127:1,2019-02-09T17:24:00Z,28.2598,-96.7737,0.0,11.1,11111222 
TCOON,ioos:station:TCOON:127:1,2019-02-09T18:24:00Z,28.2598,-96.7737,0.0,11.1,11111222 
TCOON,ioos:station:TCOON:127:1,2019-02-09T19:24:00Z,28.2598,-96.7737,0.0,11.0,11111222 
TCOON,ioos:station:TCOON:127:1,2019-02-09T20:24:00Z,28.2598,-96.7737,0.0,10.9,11111222 
TCOON,ioos:station:TCOON:127:1,2019-02-09T21:24:00Z,28.2598,-96.7737,0.0,10.8,11111222 
TCOON,ioos:station:TCOON:127:1,2019-02-09T22:24:00Z,28.2598,-96.7737,0.0,10.8,11111222 
TCOON,ioos:station:TCOON:127:1,2019-02-09T23:24:00Z,28.2598,-96.7737,0.0,10.7,11111222 
TCOON,ioos:station:TCOON:127:1,2019-02-10T00:24:00Z,28.2598,-96.7737,0.0,10.7,11111222 
TCOON,ioos:station:TCOON:127:1,2019-02-10T01:24:00Z,28.2598,-96.7737,0.0,10.6,11111222 
TCOON,ioos:station:TCOON:127:1,2019-02-10T02:24:00Z,28.2598,-96.7737,0.0,10.5,11111222 
TCOON,ioos:station:TCOON:127:1,2019-02-10T03:24:00Z,28.2598,-96.7737,0.0,10.4,11111222 
TCOON,ioos:station:TCOON:127:1,2019-02-10T04:24:00Z,28.2598,-96.7737,0.0,10.3,11111222 
TCOON,ioos:station:TCOON:127:1,2019-02-10T05:24:00Z,28.2598,-96.7737,0.0,10.3,11111222 
TCOON,ioos:station:TCOON:127:1,2019-02-10T06:24:00Z,28.2598,-96.7737,0.0,10.3,11111222 
TCOON,ioos:station:TCOON:127:1,2019-02-10T07:24:00Z,28.2598,-96.7737,0.0,10.3,11111222 
TCOON,ioos:station:TCOON:127:1,2019-02-10T08:24:00Z,28.2598,-96.7737,0.0,10.3,11111222 
TCOON,ioos:station:TCOON:127:1,2019-02-10T09:24:00Z,28.2598,-96.7737,0.0,10.4,11111222 
TCOON,ioos:station:TCOON:127:1,2019-02-10T10:24:00Z,28.2598,-96.7737,0.0,10.3,11111222 
TCOON,ioos:station:TCOON:127:1,2019-02-10T11:24:00Z,28.2598,-96.7737,0.0,10.3,11111222 
TCOON,ioos:station:TCOON:127:1,2019-02-10T12:24:00Z,28.2598,-96.7737,0.0,10.4,11111222 
TCOON,ioos:station:TCOON:127:1,2019-02-10T13:24:00Z,28.2598,-96.7737,0.0,10.5,11111222 
TCOON,ioos:station:TCOON:127:1,2019-02-10T14:24:00Z,28.2598,-96.7737,0.0,10.7,11111222 
TCOON,ioos:station:TCOON:127:1,2019-02-10T15:24:00Z,28.2598,-96.7737,0.0,10.3,11111222 
TCOON,ioos:station:TCOON:127:1,2019-02-10T16:24:00Z,28.2598,-96.7737,0.0,10.7,11111222 
TCOON,ioos:station:TCOON:127:1,2019-02-10T17:24:00Z,28.2598,-96.7737,0.0,10.5,11111222 
TCOON,ioos:station:TCOON:127:1,2019-02-10T18:24:00Z,28.2598,-96.7737,0.0,10.7,11111222 
TCOON,ioos:station:TCOON:127:1,2019-02-10T19:24:00Z,28.2598,-96.7737,0.0,10.6,11111222 
TCOON,ioos:station:TCOON:127:1,2019-02-10T20:24:00Z,28.2598,-96.7737,0.0,10.7,11111222 
TCOON,ioos:station:TCOON:127:1,2019-02-10T21:24:00Z,28.2598,-96.7737,0.0,10.7,11111222 
TCOON,ioos:station:TCOON:127:1,2019-02-10T22:24:00Z,28.2598,-96.7737,0.0,10.7,11111222 
TCOON,ioos:station:TCOON:127:1,2019-02-10T23:24:00Z,28.2598,-96.7737,0.0,10.7,11111222 
TCOON,ioos:station:TCOON:127:1,2019-02-11T00:24:00Z,28.2598,-96.7737,0.0,10.8,11111222 
TCOON,ioos:station:TCOON:127:1,2019-02-11T01:24:00Z,28.2598,-96.7737,0.0,10.8,11111222 
TCOON,ioos:station:TCOON:127:1,2019-02-11T02:24:00Z,28.2598,-96.7737,0.0,10.8,11111222 
TCOON,ioos:station:TCOON:127:1,2019-02-11T03:24:00Z,28.2598,-96.7737,0.0,11.1,11111222 
TCOON,ioos:station:TCOON:127:1,2019-02-11T04:24:00Z,28.2598,-96.7737,0.0,10.9,11111222 
TCOON,ioos:station:TCOON:127:1,2019-02-11T05:48:00Z,28.2598,-96.7737,0.0,10.8,11111222 
TCOON,ioos:station:TCOON:127:1,2019-02-11T06:24:00Z,28.2598,-96.7737,0.0,10.7,11111222 
TCOON,ioos:station:TCOON:127:1,2019-02-11T07:24:00Z,28.2598,-96.7737,0.0,10.6,11111222 
TCOON,ioos:station:TCOON:127:1,2019-02-11T08:24:00Z,28.2598,-96.7737,0.0,10.6,11111222 
TCOON,ioos:station:TCOON:127:1,2019-02-11T09:24:00Z,28.2598,-96.7737,0.0,10.6,11111222 
TCOON,ioos:station:TCOON:127:1,2019-02-11T10:24:00Z,28.2598,-96.7737,0.0,10.8,11111222 
TCOON,ioos:station:TCOON:127:1,2019-02-11T11:24:00Z,28.2598,-96.7737,0.0,10.8,11111222 
TCOON,ioos:station:TCOON:127:1,2019-02-11T12:24:00Z,28.2598,-96.7737,0.0,10.8,11111222 
TCOON,ioos:station:TCOON:127:1,2019-02-11T13:24:00Z,28.2598,-96.7737,0.0,10.8,11111222 
TCOON,ioos:station:TCOON:127:1,2019-02-11T14:24:00Z,28.2598,-96.7737,0.0,11.0,11111222 
TCOON,ioos:station:TCOON:127:1,2019-02-11T15:24:00Z,28.2598,-96.7737,0.0,11.1,11111222 
TCOON,ioos:station:TCOON:127:1,2019-02-11T16:24:00Z,28.2598,-96.7737,0.0,11.1,11111222 
TCOON,ioos:station:TCOON:127:1,2019-02-11T17:24:00Z,28.2598,-96.7737,0.0,11.3,11111222 
TCOON,ioos:station:TCOON:127:1,2019-02-11T18:30:00Z,28.2598,-96.7737,0.0,11.6,11111222 
TCOON,ioos:station:TCOON:127:1,2019-02-11T19:24:00Z,28.2598,-96.7737,0.0,11.7,11111222 
TCOON,ioos:station:TCOON:127:1,2019-02-11T20:24:00Z,28.2598,-96.7737,0.0,11.6,11111222 
TCOON,ioos:station:TCOON:127:1,2019-02-11T21:24:00Z,28.2598,-96.7737,0.0,11.5,11111222 
TCOON,ioos:station:TCOON:127:1,2019-02-11T22:24:00Z,28.2598,-96.7737,0.0,11.7,11111222 
TCOON,ioos:station:TCOON:127:1,2019-02-11T23:24:00Z,28.2598,-96.7737,0.0,11.8,11111222 
TCOON,ioos:station:TCOON:127:1,2019-02-12T00:24:00Z,28.2598,-96.7737,0.0,11.8,11111222 
TCOON,ioos:station:TCOON:127:1,2019-02-12T01:24:00Z,28.2598,-96.7737,0.0,12.2,11111222 
TCOON,ioos:station:TCOON:127:1,2019-02-12T02:24:00Z,28.2598,-96.7737,0.0,12.0,11111222 
TCOON,ioos:station:TCOON:127:1,2019-02-12T03:24:00Z,28.2598,-96.7737,0.0,12.4,11111222 
TCOON,ioos:station:TCOON:127:1,2019-02-12T04:24:00Z,28.2598,-96.7737,0.0,12.2,11111222 
TCOON,ioos:station:TCOON:127:1,2019-02-12T05:24:00Z,28.2598,-96.7737,0.0,12.3,11111222 
TCOON,ioos:station:TCOON:127:1,2019-02-12T06:24:00Z,28.2598,-96.7737,0.0,12.2,11111222 
TCOON,ioos:station:TCOON:127:1,2019-02-12T07:24:00Z,28.2598,-96.7737,0.0,12.2,11111222 